Flag for U.S.A. Weather past 2 weeks in Akron, Ohio, U.S.A.

Now
49 °F

Clear.


Feels Like: 46 °F
Forecast: 42 / 57 °F
Wind: 7 mph from West

Location: Akron Fulton International Airport

Current Time: Oct 26, 2014 at 2:12:20 AM

Latest Report: Oct 26, 2014 at 1:54 AM


Visibility: 10 mi

Pressure: 29.80 "Hg

Humidity: 52%

Dew point: 32 °F

Location of AkronLocation

Historic Weather in Akron — Graph

°F

Akron temperature yesterday

Maximum temperature yesterday: 72 °F (at 3:54 PM)
Minimum temperature yesterday: 43 °F (at 1:54 AM)
Average temperature yesterday: 58 °F

Past Weeks' High & Low Weather Summary

 TemperatureHumidityPressure
High79 °F (Oct 14, 3:54 PM)97% (Oct 24, 12:54 AM)30.25 "Hg (Oct 24, 12:54 AM)
Low32 °F (Oct 12, 5:54 AM)36% (Oct 25, 10:54 PM)29.56 "Hg (Oct 17, 2:54 PM)
Average54 °F75%29.95 "Hg
* Reported Oct 11 12:54 AM — Oct 26 12:54 AM, Akron, Weather by CustomWeather, © 2014

Note: Actual official high and low records may vary slightly from our data, if they occured in-between our weather recording intervals... More about our weather records

Advertising

Akron weather history for previous 24 hours

 ConditionsComfort  
Time TempWeatherWind HumidityBarometerVisibility
12:54 AM
Oct 26
52 °FClear.7 mph47%29.81 "Hg10 mi
11:54 PM
Oct 25
57 °FClear.13 mph37%29.81 "Hg10 mi
10:54 PM59 °FClear.16 mph36%29.80 "Hg10 mi
9:54 PM61 °FClear.16 mph38%29.78 "Hg10 mi
8:54 PM62 °FClear.13 mph44%29.77 "Hg10 mi
7:54 PM64 °FClear.16 mph40%29.77 "Hg10 mi
6:54 PM67 °FSunny.13 mph47%29.75 "Hg10 mi
5:54 PM70 °FSunny.18 mph42%29.75 "Hg10 mi
4:54 PM71 °FPassing clouds.14 mph47%29.75 "Hg10 mi
3:54 PM72 °FSunny.20 mph49%29.75 "Hg10 mi
2:54 PM70 °FPassing clouds.21 mph53%29.77 "Hg10 mi
1:54 PM68 °FPartly sunny.16 mph57%29.79 "Hg10 mi
12:54 PM66 °FScattered clouds.16 mph59%29.82 "Hg10 mi
11:54 AM64 °FSunny.16 mph61%29.84 "Hg10 mi
10:54 AM59 °FSunny.15 mph69%29.87 "Hg9 mi
9:54 AM53 °FOvercast.10 mph77%29.91 "Hg8 mi
8:54 AM51 °FOvercast.9 mph77%29.92 "Hg8 mi
7:54 AM46 °FClear.7 mph79%29.93 "Hg8 mi
6:54 AM48 °FPassing clouds.8 mph74%29.93 "Hg10 mi
5:54 AM48 °FPassing clouds.8 mph74%29.94 "Hg10 mi
4:54 AM46 °FPassing clouds.7 mph77%29.93 "Hg10 mi
3:54 AM48 °FClear.3 mph71%29.95 "Hg10 mi
2:54 AM48 °FPassing clouds.No wind77%29.96 "Hg10 mi
Weather by CustomWeather, © 2014

See weather overviewHow to use our weather pages